Connexion S'enregistrer

Connexion à votre compte

Identifiant
Mot de passe
Maintenir la connexion active sur ce site

Créer un compte

Pour valider ce formulaire, vous devez remplir tous les champs.
Nom
Identifiant
Mot de passe
Répétez le mot de passe
Adresse e-mail
Répétez l'adresse e-mail

METAR/TAF de Chambéry

[source: ADDS]
METAR
LFLB 291630Z AUTO 34004KT 9999 NSC 21/04 Q1024 NOSIG =
TAF
TAF LFLB 291100Z 2912/3012 36008KT CAVOK BECMG 2918/2920 VRB02KT =
SR / SS: 05:20 / 18:01 UTC (Lever/Coucher du soleil le 2017-03-29)

 

Webcam de l'Aéroclub - Parking Lima et SW (réactualisation : 5min)

Cliquer ici pour une animation sur les 3 dernières heures / Cliquer sur l'image pour l'agrandir dans une nouvelle fenêtre

 

Webcam de l'Aéroclub - Manche à air et WA (réactualisation : 5min)

Cliquer ici pour une animation sur les 3 dernières heures / Cliquer sur l'image pour l'agrandir dans une nouvelle fenêtre

 

Webcam Bourget-du-Lac (en direct)